Tracking 31027 objects as of 19-Jul-2025
HD Live streaming from Space Station
objects crossing your sky now

COSMOS 1814

Track COSMOS 1814 now!
10-day predictions
COSMOS 1814 is classified as:


NORAD ID: 17303
Int'l Code: 1987-006A
Perigee: 761.3 km
Apogee: 797.4 km
Inclination: 74.1 °
Period: 100.3 minutes
Semi major axis: 7150 km
RCS: 2.1989 m2 (large)
Launch date: January 21, 1987
Source: Commonwealth of Independent States (former USSR) (CIS)
Launch site: PLESETSK MISSILE AND SPACE COMPLEX (PKMTR)
Your satellite tracking list
IRIDIUM 135
Track 1 satellite(s)




NASA's NSSDC Master Catalog

Two Line Element Set (TLE):
1 17303U 87006A   25199.85773271  .00000129  00000-0  53490-4 0  9998
2 17303  74.0557 148.7509 0025221 327.9672  31.9946 14.35857480 14390
Source of the keplerian elements: AFSPC